Regional Weather Roundup
Issued by NWS

Home | Current Version | Previous Version | Text Only | Print | Product List | Glossary On
Versions: 1 2 3 4 5 6 7 8 9 10 11 12 13 14 15 16 17 18 19 20 21 22 23 24 25 26 27 28 29 30 31 32 33 34 35 36 37 38 39 40 41 42 43 44 45 46 47 48 49 50
000
ASHW40 PHFO 282310
RWRHI

WEATHER ROUNDUP FOR HAWAII
NATIONAL WEATHER SERVICE HONOLULU HI
100 PM HST WED JAN 28 2015

THIS IS AN AUTOMATED REPORT THAT HAS NOT BEEN QUALITY CONTROLLED.

NOTE..."FAIR" INDICATES FEW OR NO CLOUDS BELOW 12,000 FEET WITH NO
SIGNIFICANT WEATHER AND/OR OBSTRUCTIONS TO VISIBILITY.

* - THESE SITES REPORT LIMITED FIELDS

HIZ001>004-290000-
KAUAI-NIIHAU-

CITY           SKY/WX    TMP DP  RH WIND       PRES   REMARKS
LIHUE APT      SUNNY     79  66  64 SE9       29.94F
PORT ALLEN*      N/A     79 N/A N/A S8          N/A
POIPU*           N/A     81 N/A N/A SE3         N/A
PRINCEVILLE*     N/A     75 N/A N/A MISG        N/A
KOKOLE POINT*  NOT AVBL
MOLOAA DAIRY*  NOT AVBL
WAIMEA HTS*    NOT AVBL
PUU OPAE*      NOT AVBL
PUU LUA*       NOT AVBL
MAKAHA RIDGE*  NOT AVBL
$$

HIZ005>011-290000-
OAHU-

CITY           SKY/WX    TMP DP  RH WIND       PRES   REMARKS
HONOLULU       MOSUNNY   79  64  60 S7        29.93F
KALAELOA       CLOUDY    79  65  62 SW9       29.95F
KANEOHE MCB    MOSUNNY   77  66  68 VRB3      29.93F
WHEELER FIELD  FAIR      75  64  68 N3        29.95F
BELLOWS*       NOT AVBL
KAHUKU*        NOT AVBL
WHEELER*       NOT AVBL
WAIANAE HARBOR NOT AVBL
DILLINGHAM*      N/A     82  66  57 MISG        N/A
KAHUKU TRN*      N/A     64  54  68 NW3         N/A
KAWAILOA*        N/A     75  63  64 W2G9        N/A
KII*             N/A     75  66  73 NE5         N/A
MAKUA RANGE*     N/A     75  64  69 W5G14       N/A
OAHU FOREST NW NOT AVBL
SCHOFIELD BRK*   N/A     57  46  67 MISG        N/A
SCHOFIELD S*   NOT AVBL
WAIANAE VLY*   NOT AVBL
KUAOKALA*      NOT AVBL
HONOULIUULI*   NOT AVBL
MOKUOLOE IS*   NOT AVBL
PALEHUA*       NOT AVBL
WAIAWA PHB*    NOT AVBL
$$

HIZ012>013-290000-
MOLOKAI-

CITY           SKY/WX    TMP DP  RH WIND       PRES   REMARKS
MOLOKAI AIRPT  PTSUNNY   77  62  59 N8        29.95F
KALAUPAPA      NOT AVBL
MAKAPULAPAI*   NOT AVBL
MOLOKAI 1*     NOT AVBL
PUU ALII*      NOT AVBL
$$

HIZ016-290000-
KAHOOLAWE-

CITY           SKY/WX    TMP DP  RH WIND       PRES   REMARKS
KAHOOLAWE*     NOT AVBL
HAKIOAWA*      NOT AVBL
HONOKANAIA*      N/A     80  62  53 E10G16    29.95F
KANELOA*         N/A     79  59  50 MISG      29.19F
KEALIALALO*    NOT AVBL
LUA MAKIKA*    NOT AVBL
$$

HIZ014>015-290000-
LANAI-

CITY           SKY/WX    TMP DP  RH WIND       PRES   REMARKS
LANAI CITY     CLOUDY    80  62  54 VRB3      29.99F
LANAI 1*       NOT AVBL
$$

HIZ017>028-290000-
MAUI-

CITY           SKY/WX    TMP DP  RH WIND       PRES   REMARKS
KAHULUI        MOSUNNY   82  58  43 N8        29.92F
KAPALUA-W MAUI NOT AVBL
HANA AIRPORT   CLOUDY    77  63  61 E2        29.96F
HANA*          NOT AVBL
HALEAKALA SUMM   N/A     57  14  18 S13         N/A
MAALAEA BAY*   NOT AVBL
HALEAKALA*     NOT AVBL
KAUPO GAP*     NOT AVBL
KULA 1*          N/A     54  50  85 W5          N/A
$$

HIZ023>026-290000-
BIG ISLAND OF HAWAII COAST AND LOWER SLOPES-

CITY           SKY/WX    TMP DP  RH WIND       PRES   REMARKS
KAILUA KONA    SUNNY     82  64  54 W8        29.92F
HILO           PTSUNNY   79  61  53 SE10      29.94F
HONOKAA*       NOT AVBL
KAWAIHAE MWT*  NOT AVBL
KAWAIHAE*        N/A     79 N/A N/A W6          N/A
SOUTH POINT*   NOT AVBL
UPOLU AIRPORT* NOT AVBL
KAMUELA*       NOT AVBL
HAKALAU*         N/A     68  53  58 NE5G10      N/A
KALOKO-HONOKO* NOT AVBL
PALI 2*          N/A     66  59  77 SE10        N/A
KEALAKOMO*       N/A     79  63  57 E12         N/A
KAUPULEHU*     NOT AVBL
KAPAPALA*        N/A     76  62  61 SE5G14      N/A
LOWER KAHUKU*  NOT AVBL
PUHE CS*       NOT AVBL
PUHO CS*       NOT AVBL
PTA KEAMUKU*     N/A     72  55  56 CALM        N/A
WAIKOLOA*      NOT AVBL
$$

HIZ027>028-290000-
BIG ISLAND OF HAWAII INTERIOR AND SUMMMITS-

CITY           SKY/WX    TMP DP  RH WIND       PRES   REMARKS
BRADSHAW FIELD SUNNY     65  50  57 W6        30.24F
MK VISITOR CEN NOT AVBL
MAUNA KEA*       N/A     41  12  30 NW13        N/A
MAUNA LOA*       N/A    N/A N/A N/A MISG        N/A
MAUNA LOA 1*   NOT AVBL
PTA KIPUKA*      N/A     66  50  55 NW6G12      N/A
PTA RANGE 17*    N/A     63  48  59 NW7G15      N/A
PTA WEST*        N/A     68  52  56 NW6G18      N/A
NENE CABIN*    NOT AVBL
AHUMOA*        NOT AVBL
PTA PORTABLE*  NOT AVBL
PUU MALI*      NOT AVBL
$$

HIC003-290000-
NORTHWEST ISLANDS-

CITY           SKY/WX    TMP DP  RH WIND       PRES   REMARKS
MIDWAY ISLAND  PTSUNNY   61  41  48 NW10G20   30.26F
MIDWAY NOS*    NOT AVBL
FRENCH FRIGATE NOT AVBL
$$

PHZ110>124-180-290000-
BUOY REPORTS

STATION/POSITION TIME  TEMP    WIND        PRES    WAVE   SWELL
                       AIR SEA DIR/SP/G            HT/PER HT/DIR
                 (UTC) (F)     (DEG/KT/KT) (MB)    (FT/S) (FT/D)
BUOY 51001       NOT AVBL
BUOY 51101       2300   70 73  320/ 10/ 12 1015.0F   9/15   8/300
BUOY 51100       2200   73 75  210/ 10/ 12 1015.7F
BUOY 51003       2200   76 79  360/  2/  4 1015.1F   8/16   8
BUOY 51004       2151   76 78   80/  8/ 12 1013.2F   6/11   5/350
BARBERS PT BUOY  NOT AVBL
WAIMEA BAY BUOY  2300      76                N/A     7/17   7/310
KAILUA BAY BUOY  2300      77                N/A     4/10   2/350
LANAI BUOY       2300      78                N/A     3/17   2/270
BARBERS PT 2     2300      78                N/A     5/15   3/310
PAUWELA MAUI     2300      76                N/A     6/17   5/320
HILO             2300      77                N/A     5/17   3/340
KANEOHE BAY BUOY 2300      76                N/A     4/ 7   2/360
HANALEI KAUAI    NOT AVBL
KAHULUI HARBOR   2300   76 76  330/  6/  7 1013.2F
HONOLULU HARBOR  2300   75 76  230/  6/  7 1013.9F
KILO NALU        NOT AVBL
HILO HARBOR      2300   84 76  120/  8/ 11 1013.5F
MOKUOLOE         2300      75              1013.8F
NAWILIWILI       NOT AVBL
WHOTS BUOY       NOT AVBL
BUOY 51028       NOT AVBL
$$

......................KEY........................................
  SKY/WX - SKY CONDITIONS/PRESENT WEATHER
  TMP    - TEMPERATURE IN FAHRENHEIT
  DWPT   - DEWPOINT IN FAHRENHEIT
  RH     - RELATIVE HUMIDITY IN PERCENT
  WIND   - DIRECTION AND SPEED /MPH FOR ISLANDS...KTS FOR BUOYS/
  PRES   - MEAN SEA LEVEL PRESSURE IN INCHES OF HG
  VSB    - VISIBILITY IN MILES
  HX     - HEAT INDEX
  WCI    - WIND CHILL INDEX
  VRB    - VARIABLE WIND DIRECTION
  N/A    - NOT AVAILABLE


USA.gov is the U.S. government's official web portal to all federal, state and local government web resources and services.